Home   Weather   Regensdorf   Past weeks

Flag for Switzerland Past Weather in Regensdorf, Zurich, Switzerland — Yesterday and Last 2 Weeks

Now
55 °F

Passing clouds.


Feels Like: 55 °F
Forecast: 32 / 64 °F
Wind: 2 mph from Southeast

Location: Zurich-Kloten

Current Time: Apr 23, 2017 at 6:05:03 pm

Latest Report: Apr 23, 2017 at 5:00 pm


Visibility: 19 mi

Pressure: 30.16 "Hg

Humidity: 40%

Dew Point: 31 °F

Location of RegensdorfLocation

Past Weather in Regensdorf — Graph

°F

Regensdorf Temperature Yesterday

Maximum temperature yesterday: 62 °F (at 3:00 pm)
Minimum temperature yesterday: 31 °F (at 7:00 am)
Average temperature yesterday: 47 °F

High & Low Weather Summary for the Past Weeks

 TemperatureHumidityPressure
High75 °F (Apr 9, 5:00 pm)100% (Apr 18, 2:00 am)30.59 "Hg (Apr 18, 2:00 am)
Low23 °F (Apr 21, 7:00 am)23% (Apr 9, 4:00 pm)29.93 "Hg (Apr 13, 6:00 pm)
Average48 °F65%30.21 "Hg
* Reported Apr 8 4:00 pm — Apr 23 4:00 pm, Regensdorf, Weather by CustomWeather, © 2017

Note: Actual official high and low records may vary slightly from our data, if they occured in-between our weather recording intervals... More about our weather records

Advertising

Regensdorf Weather History for the Previous 24 Hours

Scroll right to see more
 ConditionsComfort  
Time TempWeatherWind HumidityBarometerVisibility
4:00 pm
Sun, Apr 23
55 °FCool.2 mph39%30.17 "HgN/A
3:00 pm54 °FCool.3 mph43%30.19 "HgN/A
2:00 pm53 °FScattered clouds.5 mph45%30.21 "Hg16 mi
1:00 pm53 °FCool.3 mph48%30.22 "HgN/A
12:00 pm49 °FCool.6 mph52%30.25 "HgN/A
11:00 am47 °FOvercast.3 mph53%30.25 "Hg16 mi
10:00 am46 °FCool.5 mph58%30.26 "HgN/A
9:00 am45 °FCool.7 mph59%30.26 "HgN/A
8:00 am43 °FOvercast.7 mph75%30.27 "Hg16 mi
7:00 am41 °FQuite cool.6 mph77%30.26 "HgN/A
6:00 am43 °FQuite cool.3 mph68%30.24 "HgN/A
5:00 am42 °FFog.3 mph82%30.25 "Hg9 mi
4:00 am42 °FQuite cool.6 mph83%30.25 "HgN/A
3:00 am44 °FQuite cool.5 mph71%30.25 "HgN/A
2:00 am45 °FOvercast.9 mph71%30.25 "Hg12 mi
1:00 am48 °FCool.13 mph73%30.23 "HgN/A
12:00 am50 °FCool.7 mph66%30.22 "HgN/A
11:00 pm
Sat, Apr 22
51 °FOvercast.7 mph62%30.22 "Hg12 mi
10:00 pm51 °FCool.6 mph58%30.21 "HgN/A
9:00 pm52 °FCool.6 mph55%30.19 "HgN/A
8:00 pm53 °FOvercast.8 mph53%30.18 "Hg16 mi
7:00 pm54 °FCool.7 mph52%30.17 "HgN/A
6:00 pm56 °FRefreshingly cool.8 mph48%30.17 "HgN/A
Weather by CustomWeather, © 2017

See weather overviewHow to use our weather pages